Location: Augerolle
(45.9000°N, 1.8500°E)
Time: 08:13:53
(UTC+00:00)

Daily predictions for brighter satellites

Satellite Brightness Start Highest point End
(mag) Time Altitude Azimuth Time Altitude Azimuth Time Altitude Azimuth
Okean 3 3.6 20:04:46 10° S 20:08:59 58° E 20:13:14 10° NNE
STARLINK-1096 3.6 20:04:50 10° WNW 20:09:00 86° SSW 20:13:08 10° SE
ASTEX 1 4.2 20:06:04 10° S 20:10:50 53° W 20:15:41 10° NNW
STARLINK-1230 3.7 20:07:26 10° WSW 20:11:35 89° NNW 20:15:45 10° ENE
STARLINK-1079 3.7 20:09:49 10° WNW 20:13:59 80° SSW 20:18:06 10° SE
STARLINK-1243 3.7 20:12:25 10° WSW 20:16:35 84° NNW 20:20:44 10° ENE
Cosmos 2221 Rocket 3.7 20:12:22 10° S 20:16:51 67° E 20:21:23 10° NNE
SL-4 R/B 1.8 20:14:12 10° NW 20:17:13 52° WSW 20:19:59 10° SSE
STARLINK-1116 3.7 20:14:48 10° WNW 20:18:57 75° SW 20:23:04 10° SE
NOSS 8 (F) 4.4 20:16:40 10° SSW 20:19:53 47° SE 20:22:49 10° NE
Meteor 1-13 Rocket 4.4 20:15:01 10° S 20:20:28 56° E 20:26:05 10° NNE
STARLINK-1236 3.8 20:17:23 10° WSW 20:21:33 78° NNW 20:25:42 10° ENE
ERS-1 Rocket 4.3 20:20:11 10° ESE 20:24:20 27° ENE 20:28:29 10° N
STARLINK-1094 3.8 20:24:47 10° WNW 20:28:53 64° SW 20:32:47 11° SE
Sich 1 Rocket 4.3 20:25:02 10° NNW 20:29:32 56° W 20:34:01 10° S
USA 245 3.4 20:27:56 11° SE 20:30:30 31° ENE 20:32:50 10° N
STARLINK-1102 4.4 20:27:04 10° NW 20:31:06 48° NNE 20:35:06 10° E
STARLINK-1269 4.0 20:27:23 10° WSW 20:31:31 69° NNW 20:35:40 10° ENE
Cosmos 2278 Rocket 2.9 20:27:03 10° SW 20:32:39 60° WNW 20:38:18 10° NNE
STARLINK-1117 3.9 20:29:46 10° WNW 20:33:52 59° SW 20:37:33 12° SE
Resurs 01 Rocket 1.9 20:29:31 10° S 20:33:58 72° WSW 20:38:26 10° NNW
GPS 2-04 Rocket1 4.2 20:31:57 10° SW 20:34:10 16° S 20:35:57 12° SSE
Okean 1 Rocket 4.0 20:30:11 10° N 20:34:15 33° ENE 20:37:54 12° SE
Cosmos 1741 Rocket 4.1 20:29:31 10° NNW 20:34:45 72° ENE 20:39:48 11° SSE
Okean 2 Rocket 3.2 20:30:39 10° NNW 20:35:05 79° W 20:39:28 10° S
STARLINK-1111 4.3 20:32:02 10° NW 20:36:05 50° NNE 20:40:07 10° E
STARLINK-1200 4.1 20:32:22 10° WSW 20:36:29 65° NNW 20:40:37 10° NE
MetOp-B 4.2 20:32:31 10° SSE 20:37:51 77° ENE 20:43:13 10° NNW
Meteor 1-12 Rocket 4.4 20:32:42 10° NNW 20:38:23 82° W 20:44:06 10° S
STARLINK-1078 4.0 20:34:46 10° WNW 20:38:49 54° SW 20:42:21 13° SE
SL-8 R/B 3.8 20:36:10 10° WNW 20:40:59 77° NNE 20:45:48 10° E
STARLINK-1073 4.2 20:37:00 10° NW 20:41:05 53° NNE 20:45:08 10° ESE
STARLINK-1192 4.2 20:37:23 10° WSW 20:41:30 61° NNW 20:45:37 10° NE
Cosmos 2279 Rocket 4.0 20:36:51 10° N 20:43:08 90° WSW 20:49:21 10° S
STARLINK-1108 4.1 20:39:46 10° WNW 20:43:47 50° SW 20:47:08 14° SSE
Cosmos 1850 Rocket 4.1 20:38:57 10° NNW 20:44:21 89° ENE 20:49:25 11° SSE
Cosmos 371 Rocket 3.6 20:39:48 10° SSW 20:44:39 74° WNW 20:49:33 10° NNE
ATLAS 3B CENTAUR R/B 4.3 20:33:25 10° SW 20:45:11 26° S 20:50:57 13° SE
SL-4 R/B 3.8 20:42:55 10° S 20:46:03 18° SE 20:49:13 10° E
STARLINK-1121 4.1 20:41:59 10° NW 20:46:04 56° NNE 20:50:08 10° ESE
STARLINK-1244 4.3 20:42:23 10° WSW 20:46:29 57° NNW 20:50:35 10° NE
Cosmos 1110 Rocket 4.3 20:41:57 10° S 20:46:51 44° ESE 20:51:45 10° NNE
Terra 3.2 20:44:22 11° ESE 20:47:58 26° ENE 20:51:52 10° N
STARLINK-1071 4.2 20:44:46 10° WNW 20:48:45 46° SW 20:51:55 15° SSE
Spot 2 Rocket 3.5 20:44:03 10° SSE 20:48:59 78° ENE 20:54:03 10° NNW
Abrixas rocket 1.8 20:46:37 10° WNW 20:49:34 87° SSW 20:51:50 16° ESE
Cosmos 2151 Rocket 3.7 20:45:17 10° N 20:49:50 80° W 20:54:21 10° S
SPOT 1/Viking Rocket 3.8 20:45:17 12° SSE 20:49:54 58° ENE 20:54:57 10° N
NOSS 8 (H) 4.1 20:47:51 10° SSW 20:51:02 60° SE 20:54:01 10° NE
CARTOSAT-1 4.4 20:47:49 14° SE 20:51:04 36° ENE 20:55:03 10° N
STARLINK-1106 4.0 20:46:59 10° NW 20:51:06 59° NNE 20:54:56 11° ESE
STARLINK-1138 4.5 20:47:24 10° WSW 20:51:29 54° NNW 20:55:34 10° NE
STARLINK-1110 4.3 20:48:34 10° WNW 20:52:31 43° SW 20:55:32 16° SSE
STARLINK-1112 4.0 20:51:56 10° NW 20:56:03 63° NNE 20:59:42 13° ESE
STARLINK-1124 4.5 20:54:48 10° WNW 20:58:40 39° SW 21:01:29 16° SSE
Aureole 2 4.2 20:55:43 10° NNW 20:58:50 62° ENE 21:00:36 21° SE
STARLINK-1128 3.9 20:56:54 10° NW 21:01:02 67° NNE 21:04:28 14° ESE
Cosmos 1331 Rocket 4.1 20:58:35 10° S 21:03:36 56° ESE 21:08:40 10° NNE
Aureole 2 Rocket 2.0 21:01:19 10° SSW 21:04:26 84° WNW 21:07:26 10° NNE
deb Kosmos-1763 3.9 21:00:57 10° NNW 21:04:34 85° ENE 21:06:57 20° SSE
STARLINK-1113 3.8 21:01:53 10° WNW 21:06:02 71° NNE 21:09:16 16° ESE
Cosmos 1733 4.4 21:04:19 10° NNE 21:07:39 28° ENE 21:09:32 19° ESE
Cosmos 1437 Rocket 3.2 21:05:40 10° SSW 21:09:24 61° WNW 21:13:12 10° N
STARLINK-1119 3.7 21:06:53 10° WNW 21:11:02 76° NNE 21:14:04 18° ESE
Cosmos 1378 3.4 21:09:41 20° SSE 21:11:58 47° E 21:15:33 10° NNE
ISS -1.8 21:13:11 10° W 21:15:38 19° SW 21:17:02 15° SSW
STARLINK-1114 3.6 21:11:50 10° WNW 21:16:00 81° NNE 21:18:50 20° ESE
Cosmos 304 Rocket 3.9 21:11:16 10° SSW 21:16:03 77° WNW 21:20:52 10° NNE
Cosmos 1242 Rocket 4.5 21:15:26 15° E 21:16:03 16° E 21:18:17 10° NE
Meteor 1-15 Rocket 4.4 21:10:58 10° NNW 21:16:56 81° W 21:21:57 15° S
Lacrosse 5 3.3 21:14:32 10° WNW 21:18:43 26° SW 21:22:07 13° S
Cosmos 1092 Rocket 4.2 21:15:30 16° SSE 21:20:11 53° E 21:26:08 10° NNE
NOSS 2-2 (D) 3.0 21:17:16 10° SSW 21:20:48 76° SE 21:24:44 10° NE
STARLINK-1130 (DARKSAT) 3.6 21:16:50 10° WNW 21:20:59 86° NNE 21:23:36 22° ESE
CENTAUR R/B 3.8 21:15:42 10° NW 21:23:21 50° NE 21:31:08 12° ESE
Cosmos 1674 Rocket 4.2 21:20:17 10° SSW 21:24:34 55° WNW 21:28:55 10° N
STARLINK-1084 3.5 21:21:49 10° WNW 21:25:58 88° SW 21:28:23 24° ESE
ATLAS 3B R/B 4.2 21:20:27 10° NNW 21:26:13 29° NNE 21:32:07 10° E
Cosmos 1378 Rocket 3.9 21:23:02 10° SSW 21:27:25 67° W 21:31:48 10° N
SL-27 R/B 3.6 21:24:43 10° N 21:27:59 32° ENE 21:29:28 23° ESE
NOSS 3-2 (C) 4.5 21:21:25 10° NW 21:28:42 56° NE 21:35:36 15° ESE
Cosmos 1766 3.3 21:26:47 10° N 21:30:46 69° E 21:32:47 28° SSE
STARLINK-1098 3.5 21:26:47 10° WNW 21:30:57 82° SW 21:33:10 27° SE
STARLINK-1123 3.5 21:31:45 10° WNW 21:35:55 77° SSW 21:37:56 29° SE
Cosmos 1943 Rocket 2.1 21:31:46 12° S 21:36:51 64° ESE 21:42:23 10° NNE
Cosmos 2297 4.2 21:31:24 10° SW 21:37:02 63° WNW 21:42:44 10° NNE
NOSS 2-2 (E) 3.8 21:34:36 10° SW 21:38:09 58° NW 21:42:12 10° NNE
Cosmos 1900 4.3 21:33:05 10° NW 21:38:09 89° WSW 21:41:01 26° SSE
NOSS 3-4 (A) 4.3 21:36:32 23° SE 21:38:22 27° ESE 21:43:25 10° ENE
NOSS 3-4 (C) 4.3 21:36:40 23° SE 21:38:28 26° ESE 21:43:30 10° ENE
STARLINK-1097 3.6 21:36:46 10° WNW 21:40:55 71° SW 21:42:44 31° SE
Cosmos 2082 Rocket 3.9 21:38:32 10° NW 21:43:07 25° WSW 21:47:39 10° SSW
SeaSat 1 3.8 21:40:27 10° ENE 21:44:06 20° ESE 21:44:35 20° ESE
STARLINK-1099 3.6 21:41:45 10° WNW 21:45:52 66° SW 21:47:32 34° SE
Cosmos 1975 Rocket 3.0 21:44:36 27° S 21:46:55 69° E 21:51:19 10° NNE
BREEZE-M DEB (TANK) 3.9 21:32:19 10° WSW 21:50:12 89° S 21:54:28 10° ENE
Cosmos 292 Rocket 4.2 21:48:20 29° SSE 21:50:19 45° ESE 21:54:56 10° NNE
STARLINK-1104 3.7 21:46:44 10° WNW 21:50:50 61° SW 21:52:18 36° SSE
BREEZE-M DEB (TANK) 3.7 21:47:12 10° WNW 21:51:26 52° N 21:54:58 10° E
Cosmos 2369 Rocket 2.2 21:49:04 20° S 21:53:02 62° ESE 21:58:37 10° NNE
STARLINK-1144 3.8 21:51:44 10° WNW 21:55:47 56° SW 21:57:05 38° SSE
SPOT 5 3.5 21:53:31 22° S 21:56:51 59° W 22:02:09 10° NNW
ATLAS CENTAUR R/B 2.9 21:59:35 21° E 21:59:35 21° E 22:02:08 10° ENE
STARLINK-1187 4.4 21:56:36 10° NW 21:59:29 33° NNE 22:01:14 18° ENE
STARLINK-1103 3.9 21:56:43 10° WNW 22:00:45 51° SW 22:01:51 39° S
STARLINK-1191 4.5 21:57:57 10° NW 22:00:48 32° NNE 22:02:40 17° ENE
STARLINK-1221 4.5 21:58:54 10° NW 22:01:46 32° NNE 22:03:35 18° ENE
STARLINK-1222 4.5 21:59:45 10° NW 22:02:37 32° NNE 22:04:23 18° ENE
NOSS 2-2 (C) 4.4 21:59:25 10° WSW 22:02:50 42° NW 22:06:43 10° NNE
ERS-1 Rocket 3.8 21:59:40 19° SSW 22:02:53 43° W 22:07:43 10° NNW
STARLINK-1214 4.4 22:00:39 10° NW 22:03:31 33° NNE 22:05:15 18° ENE
Cosmos 1025 Rocket 3.8 22:02:57 31° ESE 22:03:52 34° E 22:07:47 10° NNE
Okean 2 3.6 22:02:01 25° SSW 22:04:17 68° W 22:08:27 10° N
EXPRESS MD2 4.2 22:00:41 10° W 22:04:19 67° NNW 22:11:43 10° ENE
Cosmos 2026 Rocket 4.0 22:00:23 23° S 22:04:35 84° E 22:10:58 10° N
Thor Agena Rocket 4.1 22:00:25 10° NNE 22:05:25 41° E 22:07:11 31° SE
STARLINK-1101 4.0 22:01:43 10° WNW 22:05:42 47° SW 22:06:38 39° S
Meteor 1-22 Rocket 4.5 21:59:55 10° NNW 22:05:47 68° W 22:09:05 25° S
ATLAS 2AS CENTAUR R/B 3.2 22:00:30 19° S 22:06:13 52° ESE 22:13:52 10° NE
Cosmos 1656 Rocket 4.2 22:04:50 31° SSE 22:06:45 40° ESE 22:11:56 10° NE
BREEZE M DEB (TANK) 2.8 22:02:57 10° W 22:06:51 53° NNW 22:08:32 15° ENE
Cosmos 1553 Rocket 4.2 22:02:22 10° N 22:08:37 61° ENE 22:11:43 30° SSE
BREEZE-M DEB (TANK) 4.3 21:53:36 10° WNW 22:08:56 86° NNE 22:11:56 22° ESE
STARLINK-1228 4.1 22:06:03 10° NW 22:09:25 46° NNE 22:11:07 25° E
Cosmos 1953 3.7 22:06:20 10° NNE 22:09:44 26° ENE 22:10:41 24° E
NOSS 3-2 (A) 4.1 22:02:38 10° NW 22:10:10 73° SW 22:15:11 27° SSE
STARLINK-1102 4.1 22:06:44 10° WNW 22:10:40 43° SW 22:11:26 39° S
Cosmos 1470 2.9 22:07:07 10° N 22:10:58 59° E 22:11:51 45° SE
APEX 4.3 22:06:47 21° S 22:11:09 66° ESE 22:16:33 10° NNE
STARLINK-1235 4.0 22:08:46 10° NW 22:11:54 43° NNE 22:13:11 27° ENE
Cosmos 968 Rocket 3.5 22:10:14 10° NNW 22:15:24 72° ENE 22:17:31 35° SE
STARLINK-1111 4.2 22:11:44 10° WNW 22:15:37 40° SW 22:16:12 37° SSW
Cosmos 1655 Rocket 4.4 22:15:01 30° SE 22:17:44 48° E 22:23:41 10° NNE
Cosmos 1455 Rocket 3.1 22:13:32 10° NNW 22:17:52 71° W 22:19:25 38° S
STARLINK-1073 4.3 22:16:45 10° WNW 22:20:35 37° SW 22:20:59 36° SSW
ATLAS 5 CENTAUR R/B 2.2 22:15:10 10° SSW 22:21:46 39° ESE 22:23:45 10° ENE
USA 238 DEB 4.0 22:14:52 10° NW 22:21:59 62° WSW 22:25:51 30° S
USA 238 4.0 22:14:58 10° NW 22:22:06 62° WSW 22:25:58 30° S
SL-8 R/B 4.2 22:18:51 10° WNW 22:23:23 42° SSW 22:24:13 38° S
Cosmos 1758 3.3 22:20:24 10° N 22:24:28 74° E 22:25:25 50° SSE
Abrixas rocket 4.5 22:22:39 10° W 22:23:18 13° WSW 22:23:18 13° WSW
SL-4 R/B 2.3 22:20:24 10° SW 22:25:10 73° SSE 22:30:01 10° ENE
Terra 2.7 22:23:15 25° SSW 22:25:31 40° W 22:30:01 10° NNW
STARLINK-1121 4.4 22:21:46 10° WNW 22:25:32 34° SW 22:25:46 33° SW
Cosmos 1842 4.0 22:24:08 28° SW 22:25:51 49° WNW 22:29:38 10° N
STARLINK-1234 3.4 22:26:30 10° NW 22:29:44 59° NNE 22:30:16 49° ENE
Cosmos 1503 Rocket 4.0 22:30:13 10° NNW 22:35:34 78° ENE 22:37:35 39° SSE
STARLINK-1209 3.1 22:32:39 10° NW 22:35:56 68° NNE 22:36:13 63° ENE
Cosmos 2266 Rocket 4.3 22:33:43 33° SE 22:36:00 48° E 22:41:45 10° NNE
Meteor 2-8 Rocket 4.4 22:35:18 10° N 22:41:29 80° E 22:44:07 37° SSE
Cosmos 2263 4.2 22:39:18 23° SSW 22:42:55 78° WNW 22:48:34 10° NNE
Cosmos 1536 Rocket 3.4 22:45:44 53° S 22:46:45 87° E 22:51:08 10° N
Cosmos 1674 3.9 22:48:20 28° E 22:48:20 28° E 22:51:28 10° NNE
Cosmos 1271 Rocket 3.1 22:49:29 43° SW 22:50:26 57° WNW 22:54:20 10° N
Cosmos 1242 Rocket 3.8 22:49:25 28° WSW 22:50:36 37° WNW 22:54:03 10° N
STARLINK-60 3.7 22:52:21 25° W 22:53:56 52° NNW 22:57:05 10° NE
Cosmos 1544 Rocket 4.4 22:50:31 10° NNW 22:54:34 39° W 22:55:47 32° SW
Spot 4 3.8 22:53:29 47° S 22:54:53 81° WSW 22:59:47 10° NNW
Cosmos 1354 Rocket 4.0 22:49:34 10° NNW 22:54:54 83° WSW 22:56:35 45° SSE
COSMOS 2455 2.8 22:52:50 38° S 22:55:04 63° ESE 23:01:02 10° NE
USA 215 3.6 22:52:56 11° ESE 22:59:13 64° NNE 23:05:41 10° NW
Cosmos 1833 4.3 22:53:45 10° NNW 22:59:21 66° WSW 23:01:10 42° S
Cosmos 1707 3.2 22:59:44 46° WSW 23:00:30 55° WNW 23:04:21 10° N
Cosmos 2297 Rocket 4.2 22:57:29 10° N 23:01:45 21° NE 23:06:00 10° E
Helios 1A 4.1 23:01:35 29° E 23:02:39 33° ENE 23:06:26 10° N
Cosmos 1174 3.5 23:06:36 67° NE 23:06:36 67° NE 23:09:55 10° NE
Cosmos 1726 2.0 23:03:28 10° NNW 23:07:11 77° W 23:07:20 75° SW
ALOS 2 2.6 23:07:47 54° SE 23:08:39 71° ENE 23:13:03 10° N
Timation 2 Rocket 4.5 23:03:24 10° NNW 23:09:35 53° NE 23:12:54 26° ESE
STARLINK-1254 4.5 23:05:59 10° NW 23:10:01 48° NNE 23:12:41 19° E
COSMOS 2487 2.4 23:07:17 10° NNW 23:10:32 75° NW 23:10:32 75° NW
CENTAUR R/B 3.4 23:06:29 10° NW 23:14:24 56° WSW 23:18:17 33° S
STARLINK-1231 4.4 23:10:56 10° NW 23:15:00 51° NNE 23:17:27 22° E
Meteor 2-5 Rocket 4.3 23:14:12 36° SE 23:15:40 44° E 23:20:59 10° NNE
Meteor 1-16 Rocket 4.1 23:10:41 10° NNW 23:16:12 81° W 23:17:49 47° S
Cosmos 1867 3.7 23:12:07 10° NW 23:17:29 59° WSW 23:18:45 46° S
ATLAS 3B R/B 2.6 23:10:55 10° NW 23:17:46 90° SSE 23:21:09 34° SE
EO 1 Del DPAF 4.4 23:15:01 10° N 23:18:30 36° WNW 23:19:30 30° WSW
FALCON 9 DEB 4.1 23:20:07 38° ENE 23:20:07 38° ENE 23:22:23 10° ENE
STARLINK-1232 4.3 23:15:56 10° NW 23:20:00 54° NNE 23:22:15 24° E
Cosmos 1606 Rocket 3.6 23:16:38 10° N 23:20:57 64° E 23:21:36 55° SE
Cosmos 1943 Rocket 4.2 23:16:33 10° WSW 23:21:03 25° NW 23:25:37 10° N
SeaSat 1 2.8 23:17:04 10° NNE 23:21:57 62° WNW 23:24:20 30° SW
Cosmos 2098 Rocket 4.3 23:20:07 37° S 23:23:15 76° E 23:30:44 10° N
STARLINK-29 3.6 23:24:02 55° N 23:24:02 55° N 23:27:00 10° NE
STARLINK-1208 4.2 23:20:53 10° NW 23:24:59 57° NNE 23:27:00 27° E
NOSS 5 (C) 4.5 23:22:23 10° NW 23:25:32 83° N 23:25:32 83° N
ATLAS CENTAUR R/B 3.6 23:26:04 10° NNW 23:27:43 18° NE 23:30:07 10° E
NOSS 3-4 (A) 3.8 23:23:52 16° SW 23:28:43 62° NW 23:35:04 10° NE
NOSS 3-4 (C) 3.8 23:24:01 16° SW 23:28:48 63° NW 23:35:11 10° NE
RESURS DK-1 2.4 23:29:48 61° ESE 23:29:48 61° ESE 23:33:53 10° NE
STARLINK-1271 4.1 23:25:54 10° NW 23:30:00 60° NNE 23:31:49 31° E
Cosmos 2084 3.5 23:33:36 59° SE 23:33:41 59° SE 23:38:06 10° NE
Cosmos 2315 Rocket 3.9 23:28:30 10° N 23:34:44 84° W 23:36:59 42° S
BREEZE-M R/B 3.9 23:31:45 30° SSW 23:34:58 52° SSE 23:39:05 10° ENE
STARLINK-1154 3.9 23:30:52 10° NW 23:34:59 64° NNE 23:36:36 35° E
Cosmos 1626 3.1 23:36:00 36° E 23:36:00 36° E 23:39:16 10° NNE
Cosmos 2369 Rocket 4.1 23:32:49 10° WSW 23:37:29 26° NW 23:42:09 10° N
ATLAS CENTAUR R/B 2.2 23:35:43 29° WSW 23:37:33 48° NW 23:41:33 10° NNE
Cosmos 1340 Rocket 3.7 23:34:03 10° NNW 23:37:50 38° W 23:38:06 37° WSW
Okean 1-7 Rocket 4.0 23:37:39 45° ESE 23:38:13 48° E 23:42:35 10° NNE
Cosmos 2227 Rocket 3.7 23:33:57 10° N 23:39:01 32° NE 23:43:29 12° ESE
STARLINK-1197 3.8 23:35:49 10° WNW 23:39:58 68° NNE 23:41:20 39° E
Nadezhda 2 Rocket 4.5 23:39:44 42° SSE 23:41:49 70° E 23:47:56 10° NNE
Cosmos 1908 3.2 23:38:41 10° NNW 23:42:29 65° W 23:42:29 65° W
STARLINK-1198 3.7 23:40:48 10° WNW 23:44:57 72° NNE 23:46:08 44° E
Aureole 3 4.2 23:42:15 10° NNW 23:44:31 30° WNW 23:44:31 30° WNW
Cosmos 1953 3.8 23:42:45 10° NNW 23:46:03 25° W 23:46:22 25° W
STARLINK-1199 3.6 23:45:47 10° WNW 23:49:57 77° NNE 23:50:55 51° ESE
Landsat 4 3.6 23:47:21 10° NNE 23:51:00 76° E 23:51:00 76° E
KORONAS-FOTON 4.2 23:52:25 51° W 23:52:39 52° WNW 23:56:26 10° N
STARLINK-1210 3.6 23:50:46 10° WNW 23:54:55 82° NNE 23:55:41 58° ESE
